www.pogodaiklimat.ru

Погода и климат >> Архив погоды >> Россия >> Якутия >> Джарджан


ПОГОДА в Джарджане

  • Прогноз погоды в Джарджане
  • Монитор погоды в Джарджане
  • Климат города

АРХИВ ПОГОДЫ в Джарджане

Время (UTC), дата Ветер
(напр.,м/с)
 
Видим.   Явления Облачность Т
(С)
Тd
(С)
f
(%)
Тe
(С)
Тes
(С)
Комфортность P
(гПа)
Po
(гПа)
Тmin
(С)
Tmax
(С)
R
(мм)
S
(см)
09 17.02 Ю 7 50 км 10/0
[Ci ing]
-28.9 -32.8 69 -43 -43 опасность
обморожения
1017.4 1011.9
12 17.02 Ю 7 20 км слабый снег 10/0
[Cs]
-29.0 -32.8 70 -43 -43 опасность
обморожения
1017.0 1011.5 -28.3 0.3
15 17.02 Ю 6 10 км слабый снег {метель} 10/0
[Cs]
-29.0 -32.8 70 -42 -42 опасность
обморожения
1016.5 1011.0
18 17.02 Ю 6 10 км слабый снег {метель} 10/0
[As op]
-27.8 -31.7 69 -41 -41 опасность
обморожения
1015.7 1009.8
21 17.02 Ю 6 10 км слабый снег {метель} 10/0
[As op]
-28.2 -32.1 69 -41 -41 опасность
обморожения
1014.7 1009.2
00 18.02 Ю 5 20 км слабый снег {метель} 10/0
[As op]
-27.0 -30.9 69 -39 -39 опасность
обморожения
1013.8 1008.3 -28.6 0.9 29
03 18.02 ЮЗ 5 50 км {снег, метель} 6/0
[As op]
-26.1 -30.0 70 -38 -37 опасность
обморожения
1012.8 1007.4
06 18.02 Ю 5 50 км {снег, метель} 4/0
[Cs]
-25.3 -29.3 69 -37 -37 опасность
обморожения
1011.9 1006.5
09 18.02 Ю 3 50 км 10/0
[Cs]
-26.2 -30.1 70 -35 -35 опасность
обморожения
1012.2 1006.8
03 19.02 Ю 5 50 км позёмок {метель} 10/0
[As op Ci fib]
-26.1 -30.0 70 -38 -38 опасность
обморожения
1011.9 1036.5 -26.4 29
06 19.02 Ю 6 10 км слабый снег {метель} 10/0
[As op Cs]
-24.7 -28.6 70 -37 -37 опасность
обморожения
1010.7 1005.3
12 19.02 Ю 2 50 км {снег, метель} 4/0
[Ci fib]
-29.0 -32.8 70 -36 -36 опасность
обморожения
1011.7 1006.2 -24.4 0.6
15 19.02 Ю 1 50 км ясно -27.5 -31.4 69 -31 -31 опасность
обморожения
1011.3 1005.8
21 19.02 Ю 1 50 км 3/0
[Ci fib]
-28.0 -31.9 69 -32 -32 опасность
обморожения
1012.7 1007.2
00 20.02 штиль 0 50 км 4/0
[Ci fib]
-29.3 -34.2 62 -29 -29 1014.2 1008.7 -29.7 29
03 20.02 Ю 1 50 км ясно -24.8 -28.0 75 -28 -27 1015.2 1009.8
06 20.02 Ю 1 50 км 9/0
[Ci fib]
-24.4 -28.4 69 -28 -28 1016.3 1010.9
09 20.02 Ю 1 50 км 6/0
[Ci fib]
-28.0 -31.9 69 -32 -32 опасность
обморожения
1018.2 1012.7
12 20.02 штиль 0 50 км ясно -31.6 -35.2 70 -32 -32 опасность
обморожения
1019.8 1014.3 -24.1
15 20.02 штиль 0 50 км ясно -35.0 -38.7 69 -35 -35 опасность
обморожения
1021.0 1015.3
18 20.02 штиль 0 50 км ясно -36.4 -40.1 68 -36 -36 опасность
обморожения
1021.8 1016.1
21 20.02 штиль 0 50 км ясно -37.1 -40.8 68 -37 -37 опасность
обморожения
1022.7 1017.0
00 21.02 штиль 0 50 км ясно -40.4 -43.9 69 -40 -40 опасность
обморожения
1023.5 1017.4 -40.4 29
03 21.02 штиль 0 50 км ясно -38.5 -42.7 64 -39 -37 опасность
обморожения
1023.8 1018.0
06 21.02 С 1 50 км ясно -34.0 -37.5 70 -39 -38 опасность
обморожения
1023.7 1018.0
09 21.02 штиль 0 50 км ясно -36.9 -40.4 70 -37 -37 опасность
обморожения
1023.9 1018.2
12 21.02 штиль 0 50 км ясно -38.1 -41.6 69 -38 -38 опасность
обморожения
1023.9 1018.1 -34.0
15 21.02 штиль 0 50 км ясно -39.4 -42.9 69 -39 -39 опасность
обморожения
1023.9 1018.1
18 21.02 штиль 0 50 км ясно -40.5 -43.9 70 -41 -41 опасность
обморожения
1023.7 1017.9
21 21.02 штиль 0 50 км ясно -41.0 -44.4 69 -41 -41 опасность
обморожения
1023.6 1017.8
00 22.02 штиль 0 50 км 3/0
[As op]
-42.7 -46.9 63 -43 -43 опасность
обморожения
1023.1 1017.2 -42.7 29
03 22.02 штиль 0 50 км ясно -38.5 -42.7 64 -39 -37 опасность
обморожения
1022.8 1017.0
06 22.02 штиль 0 50 км 3/0
[Ci fib]
-34.6 -38.8 65 -35 -34 опасность
обморожения
1022.6 1016.9
09 22.02 штиль 0 50 км ясно -35.9 -40.1 65 -36 -36 опасность
обморожения
1022.5 1016.8
12 22.02 штиль 0 50 км ясно -38.5 -42.0 69 -39 -39 опасность
обморожения
1022.2 1016.4 -34.6
15 22.02 штиль 0 50 км ясно -40.9 -45.1 64 -41 -41 опасность
обморожения
1021.5 1015.7
18 22.02 штиль 0 50 км ясно -42.1 -46.3 63 -42 -42 опасность
обморожения
1021.4 1015.6
21 22.02 штиль 0 50 км ясно -43.6 -46.9 70 -44 -44 опасность
обморожения
1021.5 1015.6
00 23.02 штиль 0 50 км 4/0
[Ci fib]
-44.4 -47.6 70 -44 -44 опасность
обморожения
1021.7 1015.8 -44.4 29
03 23.02 штиль 0 50 км 3/0
[Ci fib]
-38.9 -43.2 64 -39 -38 опасность
обморожения
1020.9 1015.2
06 23.02 штиль 0 50 км 3/0
[Ci fib]
-34.7 -39.1 64 -35 -34 опасность
обморожения
1020.9 1015.2
09 23.02 штиль 0 50 км 6/0
[Ci fib]
-37.0 -41.1 65 -37 -37 опасность
обморожения
1021.0 1015.3
12 23.02 штиль 0 50 км 4/0
[Ci fib]
-35.9 -39.4 70 -36 -36 опасность
обморожения
1021.1 1015.4 -34.7
15 23.02 штиль 0 50 км 3/0
[Ci fib]
-40.0 -43.4 70 -40 -40 опасность
обморожения
1021.3 1015.5
18 23.02 штиль 0 50 км 8/0
[Ci fib]
-41.1 -44.4 70 -41 -41 опасность
обморожения
1021.4 1015.6
21 23.02 штиль 0 50 км ясно -42.3 -46.3 65 -42 -42 опасность
обморожения
1020.8 1015.0
00 24.02 штиль 0 50 км 10/0
[As op Ci fib]
-41.8 -45.7 66 -42 -42 опасность
обморожения
1020.5 1015.0 -42.9 29
03 24.02 штиль 0 50 км ясно -36.6 -40.8 65 -37 -35 опасность
обморожения
1020.2 1014.6

 

Местоположение метеостанции Джарджан (Якутия, Россия): широта 68.73 долгота 124.00 высота над уровнем моря 39 м.

В архиве по умолчанию представлена погода в Джарджане за последнюю неделю. Архивные данные за месяц целиком и за предыдущие месяцы, начиная с января 2011 года, Вы можете получить, выбрав интересующий диапазон дат из раскрывающегося списка и нажав кнопку "Ввод!".

Внимание! Время в таблицах - всемирное. Для получения местного времени необходимо прибавить поправку, которая в Джарджане равна 9 ч.

Смотрите также архив погоды в соседних городах и на ближайших метеорологических станциях:

Погода в Жиганске (Якутия, Россия) (219 км)
Погода в Сухане (Якутия, Россия) (231 км)
Погода в Кюсюре (Якутия, Россия) (253 км)
Погода в Батагай-Алыте (Якутия, Россия) (284 км)
Погода в Тюмяти (Якутия, Россия) (355 км)
Погода в Тикси (Якутия, Россия) (367 км)
Погода в Бестяхской Звероферме (Якутия, Россия) (382 км)
Погода в Екюччю (Якутия, Россия) (387 км)
Погода в Верхоянске (Якутия, Россия) (409 км)
Погода на Мысе Быков (Якутия, Россия) (410 км)

Пояснения к столбцам:

Ветер - указаны скорость ветра в м/с - средняя за 10 мин, порывы в срок и между сроками (в фигурных скобках) и направление, откуда дует ветер: С - северный, СВ - северо-восточный, В - восточный, ЮВ - юго-восточный, Ю - южный, ЮЗ - юго-западный, З - западный, СЗ - северо-западный.
Видимость - горизонтальная дальность видимости в метрах или километрах. При видимости от 1 до 10 км при отсутствии осадков обычно наблюдается дымка, при ухудшении видимости до 1 км и менее - туман. В сухую погоду видимость может ухудшаться дымом, пылью или мглою.
Явления - указаны атмосферные явления, наблюдавшиеся в срок или в последний час перед сроком; фигурными скобками обозначены явления, наблюдавшиеся между сроками (за 1-3 часа до срока); квадратными скобками обозначены град или гололедные отложения с указанием их диаметра в мм.
Облачность - указаны через наклонную черту общая и нижняя облачность в баллах и высота нижней границы облаков в метрах; квадратными скобками обозначены формы облаков: Ci - перистые, Cs - перисто-слоистые, Cc - перисто-кучевые, Ac - высококучевые, As - высокослоистые, Sc - слоисто-кучевые, Ns - слоисто-дождевые, Cu - кучевые, Cb - кучево-дождевые. Подробнее классификацию облаков см. в Атласе облаков (PDF).
T - Температура воздуха - температура, измеренная на высоте 2 м над землей.
Td - Температура точки росы - температура, при понижении до которой содержащийся в воздухе водяной пар достигнет насыщения.
f - Относительная влажность воздуха - влажноcть воздуха, измеренная на высоте 2 м над землей.
Te - Эффективная температура - температура, которую ощущает одетый по сезону человек в тени. Характеристика душности погоды. При расчете учитывается влияние влажности воздуха и скорости ветра на теплоощущения человека.
Tes - Эффективная температура на солнце - температура, которую ощущает человек, с поправкой на солнечный нагрев. Характеристика знойности погоды. Зависит от высоты солнца над горизонтом, облачности и скорости ветра. Ночью, в пасмурную погоду, а также при ветре 12 м/с и более поправка равна нулю.
P - Атмосферное давление - приведенное к уровню моря атмосферное давление.
Po - Атмосферное давление - измеренное на уровне метеостанции атмосферное давление.
Tmin - Минимальная температура - минимум температуры воздуха на высоте 2 м над землей.
Tmax - Максимальная температура - максимум температуры воздуха на высоте 2 м над землей.
R - Количество осадков - Количество выпавших осадков, мм. При наведении курсора мыши на число - период времени, за который выпало указанное количество осадков.
S - Снежный покров - Высота снежного покрова, см. При наведении курсора мыши на число - состояние снежного покрова и степень покрытия местности в баллах.